Station DBLN6 - Dunkirk, NY Image indicating link to RSS feed of recent meteorological observations for station DBLN6


Conditions at DBLN6 as of
(2:00 am EDT)
0600 GMT on 04/15/2024:
     

Click on the graph icon in the table below to see a time series plot of the last five days of that observation.

5-day plot - Wind Direction Wind Direction (WDIR):WSW ( 240 deg true )
5-day plot - Wind Speed Wind Speed (WSPD): 3 kts
5-day plot - Wind Gust Wind Gust (GST): 4 kts
5-day plot - Atmospheric Pressure Atmospheric Pressure (PRES):29.80 in
5-day plot - Pressure Tendency Pressure Tendency (PTDY):+0.07 in ( Rising )
5-day plot - Air Temperature Air Temperature (ATMP): 53.2 °F
5-day plot - Wind Chill Wind Chill (CHILL): 53.1 °F
5-day plot - Wind Speed at 10 Meters Wind Speed at 10 meters (WSPD10M): 4 kts
5-day plot - Wind Speed at 20 Meters Wind Speed at 20 meters (WSPD20M): 4 kts
5-day plot -  Wind Speed, Wind Gust and Atmospheric Pressure Combined plot of Wind Speed, Gust, and Air Pressure
Continuous Winds
TIME
(EDT)
5-day plot - Wind Direction WDIR 5-day plot - Wind Speed WSPD
2:00 amWSW ( 237 deg ) 4 kts
1:50 amW ( 261 deg ) 4 kts
1:40 amW ( 262 deg ) 3 kts
1:30 amW ( 265 deg ) 1 kts
1:20 amSW ( 233 deg ) 1 kts
1:10 amSSE ( 150 deg ) 1 kts
 
Peak gust during the measurement hour
TIME
(EDT)
5-day plot - Gust Direction GDR 5-day plot - Gust Speed GST
1:47 amW ( 260 deg ) 6 kts
Previous observations
TIME
(EDT)
5-day plot - Wind Direction
WDIR
 
5-day plot - Wind Speed
WSPD
kts
5-day plot - Wind Gust
GST
kts
5-day plot - Wave Height
WVHT
ft
5-day plot - Dominant Wave Period
DPD
sec
5-day plot - Average Wave Period
APD
sec
5-day plot - Mean Wave Direction
MWD
 
5-day plot - Atmospheric Pressure
PRES
in
5-day plot - Pressure Tendency
PTDY
in
5-day plot - Air Temperature
ATMP
°F
5-day plot - Water Temperature
WTMP
°F
5-day plot - Dew Point
DEWP
°F
5-day plot - Salinity
SAL
psu
5-day plot - Visibility
VIS
nmi
5-day plot - Tide (above MLLW)
TIDE
ft
2024-04-15 01:00 am SE 1 2----29.78+0.07 52.0-----
2024-04-15 12:00 am NW 10 11----29.77+0.06 48.9-----
2024-04-14 11:00 pm W 9 10----29.73+0.05 54.9-----
2024-04-14 10:00 pm SW 7 8----29.71+0.06 60.3-----
2024-04-14 09:00 pm SW 6 9----29.71+0.06 59.9-----
2024-04-14 08:00 pm SW 6 8----29.68+0.03 57.4-----
2024-04-14 07:00 pm SW 8 10----29.65+0.02 55.2-----
2024-04-14 06:00 pm SW 9 10----29.65+0.03 53.6-----
2024-04-14 05:00 pm SW 15 16----29.65+0.04 53.8-----
2024-04-14 04:00 pm SW 14 15----29.63+0.03 51.4-----
2024-04-14 03:00 pmWSW 16 18----29.62+0.02 50.9-----
2024-04-14 02:00 pmWSW 19 20----29.61-0.03 52.0-----
2024-04-14 01:00 pmWSW 22 24----29.60-0.09 54.5-----
2024-04-14 12:00 pm SW 22 24----29.61-0.19 58.6-----
2024-04-14 11:00 amSSW 11 17----29.64-0.07 60.6-----
2024-04-14 10:00 amSSE 9 13----29.69-0.11 51.6-----
2024-04-14 09:00 am SE 7 8----29.79-0.06 46.6-----
2024-04-14 08:00 amSSE 16 21----29.71-0.15 50.0-----
2024-04-14 07:00 amSSE 11 12----29.80-0.09 47.5-----
2024-04-14 06:00 amSSE 8 9----29.85-0.05 47.3-----
2024-04-14 05:00 amSSE 7 9----29.87-0.05 47.8-----
2024-04-14 04:00 amSSW 5 9----29.88-0.03 49.5-----
2024-04-14 03:00 amSSW 5 8----29.90-0.02 48.9-----
2024-04-14 02:00 am SW 11 14----29.92-0.01 48.4-----